User: anonymous   Login
Location: Paimpol
(48.7798°N, 3.0488°W)
Time: 09:37:10
(UTC+02:00)
Language:

ISS - Orbit

View from above orbital plane
View from above orbital plane
View from above satellite
View from above satellite

Ground track
Ground track

The orbit data is extracted from the following two-line orbital elements,

1 25544U 98067A   21212.30049829  .00005256  00000-0  10398-3 0  9995
2 25544  51.6430 124.5801 0001390 220.3682 235.5802 15.48861065295430
Epoch (UTC): 31 July 2021 07:12:43
Eccentricity: 0.0001390
inclination: 51.6430°
perigee height: 419 km
apogee height: 421 km
right ascension of ascending node: 124.5801°
argument of perigee: 220.3682°
revolutions per day: 15.48861065
mean anomaly at epoch: 235.5802°
orbit number at epoch: 29543

The dashed part of the orbit path shows where the satellite is in the earth's shadow,  

DLR